Find Starlink 31550

NORAD ID: 59338 Int'l Des: 2024-057 Owner: SPXS Country: US Constellation: starlink operational
LEOCIRCULAR

現在のビュー

3D地球を読み込み中...

About Starlink 31550

Starlink 31550 (NORAD 59338) is a starlink constellation satellite (v2 mini) launched Mar 25, 2024 by SPXS of US. It operates in LEO, CIRCULAR orbit with a mass of 730.00 kg.

Starlink 31550について

説明を読み込み中...

次回通過

Passes for default location (London). Set your location on the main map for personalized predictions.

高度履歴

Loading altitude history...

軌道要素

1 59338U 24057U 26173.69183142 -.00000135 00000-0 46239-5 0 9998
2 59338 43.0036 314.4343 0001354 276.5461 83.5237 15.27575018125896
Epoch: Jun 22, 2026 • Age: 17 hours

現在のステータス

高度 484.1 km
速度 7.62 km/s
衛星直下点 -7.51°S, 90.15°E
打ち上げ日 Mar 25, 2024
運用期間 2.2 years
タイプ internet

技術仕様

分類 Payload
質量 730.00 kg
乾燥質量 700.00 kg
総質量 730.00 kg
長さ 0.30 m
直径 4.10 m
スパン 29.00 m
形状 Box + pan
製造者 SPXS
バスタイプ Starlink V2M
フェーズステータス In Orbit
所有者/国 SPXS/US

Most Searched